This demonstration page uses our WeatherBlox Daily Observations layout. Learn more.

Left ArrowRight Arrow

Hourly Observations for July 18, 2018

Temp ( °F °C ) Dew Point ( °F °C ) Humidity (%) Winds ( mph kmh ) Pressure ( in mb ) Visibility ( mi km ) Precip ( " mm )
12:15 am 00:15 Clear 70 21.2 66 19.1 88 88 ESE 8 13 30.00 1016 10 16 N/A
12:35 am 00:35 Clear 70 21.1 67 19.2 89 89 ESE 8 13 30.00 1016 10 16 N/A
12:55 am 00:55 Clear 70 21.1 67 19.2 89 89 SE 9 15 30.00 1016 10 16 N/A
1:15 am 01:15 Partly Cloudy 70 20.9 67 19.4 91 91 ESE 8 13 30.00 1016 7 11 N/A
1:35 am 01:35 Mostly Cloudy 70 21 67 19.5 91 91 ESE 5 7 30.00 1016 10 16 N/A
1:55 am 01:55 Cloudy 70 20.9 67 19.5 92 92 ESE 6 9 29.97 1015 7 11 N/A
2:15 am 02:15 Cloudy with Mist and Fog 70 21.1 68 20 93 93 SE 10 17 29.97 1015 5 8 N/A
2:35 am 02:35 Cloudy with Mist and Fog 70 21 68 20 94 94 SE 9 15 29.97 1015 1 2 N/A
2:55 am 02:55 Cloudy with Mist and Fog 70 21.1 69 20.3 95 95 SE 9 15 29.97 1015 3 4 N/A
3:15 am 03:15 Cloudy with Mist and Fog 70 21.2 69 20.3 95 95 SE 10 17 29.97 1015 4 6 N/A
3:35 am 03:35 Cloudy with Mist and Fog 70 21.3 69 20.4 95 95 SE 8 13 29.94 1014 4 6 N/A
3:55 am 03:55 Cloudy 71 21.6 69 20.4 93 93 SSE 5 7 29.97 1015 7 11 N/A
4:15 am 04:15 Cloudy 71 21.7 69 20.3 92 92 SE 3 6 29.97 1015 7 11 N/A
4:35 am 04:35 Cloudy with Mist and Fog 71 21.6 69 20.3 92 92 SSE 3 6 29.97 1015 5 8 N/A
4:55 am 04:55 Cloudy with Mist and Fog 71 21.5 69 20.3 93 93 N N/A 29.97 1015 4 6 N/A
5:15 am 05:15 Cloudy with Mist and Fog 71 21.5 69 20.3 93 93 N N/A 29.97 1015 5 8 N/A
5:35 am 05:35 Cloudy with Light Rain 71 21.5 69 20.5 94 94 N N/A 30.00 1016 3 5 N/A
5:55 am 05:55 Cloudy with Mist and Fog 70 21.2 68 20.2 94 94 ENE 5 7 30.00 1016 3 5 N/A
6:15 am 06:15 Cloudy with Mist and Fog 70 21.2 69 20.3 95 95 E 3 6 30.00 1016 3 5 N/A
6:35 am 06:35 Cloudy with Mist and Fog 70 21.1 68 20.2 95 95 N N/A 30.00 1016 3 5 N/A
6:55 am 06:55 Cloudy with Mist and Fog 70 21.2 69 20.3 95 95 N N/A 30.00 1016 3 5 N/A
7:15 am 07:15 Mostly Cloudy with Mist and Fog 70 21.1 68 20.1 94 94 E 3 6 29.97 1015 3 5 N/A
7:35 am 07:35 Partly Cloudy with Mist and Fog 70 21.2 68 20.2 94 94 N N/A 30.00 1016 4 6 N/A
7:55 am 07:55 Partly Cloudy with Mist and Fog 70 21.1 68 20.1 94 94 ESE 6 9 29.97 1015 3 5 N/A
8:15 am 08:15 Mostly Cloudy with Light Rain 70 21.1 68 20.2 95 95 S 6 9 29.97 1015 3 5 N/A
8:35 am 08:35 Mostly Cloudy with Light Rain 70 21 68 20 94 94 SE 10 17 29.94 1014 3 4 0.01 0.25
8:55 am 08:55 Mostly Cloudy with Light Rain 70 21 68 20.1 95 95 SSE 16 26 29.91 1013 3 5 0.01 0.25
9:15 am 09:15 Partly Cloudy 70 21.2 68 20.2 94 94 SSE 6 9 29.94 1014 7 11 N/A
9:35 am 09:35 Partly Cloudy 72 22.2 69 20.6 91 91 SE 6 9 29.94 1014 10 16 0.01 0.25
9:55 am 09:55 Mostly Cloudy 73 22.5 69 20.4 88 88 SSE 12 19 29.94 1014 10 16 0.01 0.25
10:15 am 10:15 Mostly Cloudy 73 23 68 20.1 84 84 SE 8 13 29.94 1014 10 16 N/A
10:35 am 10:35 Mostly Cloudy 75 23.7 69 20.7 83 83 SSE 6 9 29.91 1013 10 16 N/A
10:55 am 10:55 Mostly Cloudy 75 24.1 68 19.8 77 77 SSE 7 11 29.91 1013 10 16 N/A
11:15 am 11:15 Cloudy 76 24.4 67 19.5 74 74 SSE 8 13 29.91 1013 10 16 N/A
11:35 am 11:35 Mostly Cloudy 77 25.2 68 20.1 73 73 S 9 15 29.91 1013 10 16 N/A
11:55 am 11:55 Mostly Cloudy 78 25.8 68 20 70 70 S 8 13 29.91 1013 10 16 N/A
12:15 pm 12:15 Partly Cloudy 79 26 68 20 70 70 SSE 8 13 29.91 1013 10 16 N/A
12:35 pm 12:35 Partly Cloudy 79 26.2 68 19.8 68 68 SSE 7 11 29.91 1013 10 16 N/A
12:55 pm 12:55 Cloudy 79 26.1 68 20 69 69 SSW 5 7 29.91 1013 10 16 N/A
1:15 pm 13:15 Cloudy 79 26.3 67 19.5 66 66 S 6 9 29.91 1013 10 16 N/A
1:35 pm 13:35 Cloudy 80 26.5 67 19.5 65 65 S 3 6 29.91 1013 10 16 N/A
1:55 pm 13:55 Cloudy 80 26.6 68 19.9 67 67 S 5 7 29.91 1013 10 16 N/A
2:15 pm 14:15 Mostly Cloudy 80 26.9 68 20 66 66 N N/A 29.91 1013 7 11 N/A
2:35 pm 14:35 Partly Cloudy 82 27.6 69 20.6 66 66 ESE 3 6 29.88 1012 10 16 N/A
2:55 pm 14:55 Sunny 82 27.5 69 20.3 65 65 SSE 3 6 29.85 1011 10 16 N/A
3:15 pm 15:15 Partly Cloudy 82 28 70 20.9 65 65 SE 5 7 29.85 1011 10 16 N/A
3:35 pm 15:35 Partly Cloudy 82 28 70 21.1 66 66 SSE 5 7 29.85 1011 10 16 N/A
3:55 pm 15:55 Mostly Cloudy 83 28.3 70 20.9 64 64 SE 6 9 29.85 1011 10 16 N/A
4:15 pm 16:15 Partly Cloudy 83 28.6 71 21.4 65 65 SSE 6 9 29.83 1010 10 16 N/A
4:35 pm 16:35 Sunny 84 29 71 21.5 64 64 SE 9 15 29.83 1010 10 16 N/A
4:55 pm 16:55 Sunny 84 29 71 21.4 64 64 SE 5 7 29.83 1010 10 16 N/A
5:15 pm 17:15 Partly Cloudy 85 29.4 71 21.5 63 63 SE 7 11 29.83 1010 10 16 N/A
5:35 pm 17:35 Partly Cloudy 85 29.4 71 21.9 64 64 SE 9 15 29.80 1009 10 16 N/A
5:55 pm 17:55 Partly Cloudy 85 29.2 72 22.2 66 66 SSE 10 17 29.80 1009 10 16 N/A
6:15 pm 18:15 Partly Cloudy 83 28.2 71 21.9 69 69 SSE 9 15 29.80 1009 10 16 N/A
6:35 pm 18:35 Partly Cloudy 84 28.9 72 22.3 68 68 SSE 9 15 29.77 1008 10 16 N/A
6:55 pm 18:55 Partly Cloudy 83 28.6 71 21.6 66 66 SSW 9 15 29.77 1008 10 16 N/A
7:15 pm 19:15 Partly Cloudy 84 29.1 71 21.8 65 65 S 10 17 29.77 1008 10 16 N/A
7:35 pm 19:35 Partly Cloudy 83 28.6 72 22.2 68 68 S 9 15 29.77 1008 10 16 N/A
7:55 pm 19:55 Partly Cloudy 83 28.3 72 22.1 69 69 S 7 11 29.77 1008 10 16 N/A
8:15 pm 20:15 Partly Cloudy 82 27.6 72 22.2 72 72 S 8 13 29.77 1008 10 16 N/A
8:35 pm 20:35 Sunny 81 27 73 22.5 76 76 S 6 9 29.77 1008 10 16 N/A
8:55 pm 20:55 Sunny 79 26.1 72 22.3 80 80 S 7 11 29.77 1008 10 16 N/A
9:15 pm 21:15 Clear 78 25.7 72 22.4 82 82 S 10 17 29.74 1007 10 16 N/A
9:35 pm 21:35 Hazy 77 25 72 22.2 85 85 S 7 11 29.80 1009 5 8 N/A
9:55 pm 21:55 Clear 76 24.5 72 22.2 87 87 S 7 11 29.80 1009 10 16 N/A
10:15 pm 22:15 Clear 76 24.3 72 22 87 87 S 5 7 29.80 1009 10 16 N/A
10:35 pm 22:35 Clear 75 24.1 72 22 88 88 SSE 6 9 29.83 1010 10 16 N/A
10:55 pm 22:55 Clear 75 24.1 71 21.9 88 88 ESE 7 11 29.83 1010 10 16 N/A
11:15 pm 23:15 Clear 75 24 71 21.7 87 87 SE 6 9 29.83 1010 10 16 N/A
11:35 pm 23:35 Clear 74 23.6 71 21.7 89 89 E 13 20 29.83 1010 10 16 N/A
11:55 pm 23:55 Clear 75 23.7 71 21.7 89 89 SE 12 19 29.83 1010 10 16 N/A

Powered by AerisWeather